Weather History for Juliana Airport, St. Martin

Change the Weather History Date:

Monday, November 5, 2012

  Actual Average Record
Temperature  
Mean Temperature 82 °F -  
Max Temperature 86 °F 84 °F 87 °F (1996)
Min Temperature 77 °F 74 °F 71 °F (2000)
Cooling Degree Days 16    
Growing Degree Days 32 (Base 50)    
Moisture  
Dew Point 74 °F    
Average Humidity 76    
Maximum Humidity 89    
Minimum Humidity 61    
Precipitation  
Precipitation 0.08 in 0.16 in - ()
Sea Level Pressure  
Sea Level Pressure 29.92 in    
Wind  
Wind Speed 7 mph ()    
Max Wind Speed 13 mph    
Max Gust Speed -    
Visibility 6.5 miles    
Events Rain    
Averages and records for this station are not official NWS values.
T = Trace of Precipitation, MM = Missing Value Source: Averaged Metar Reports

Daily Weather History Graph

Daily Weather History Graph

Search for Another Location

Airport:

Trip Planner

Search our weather history database for the weather conditions in past years. The results will help you decide how hot, cold, wet, or windy it might be!

Date:

Astronomy

Nov. 05, 2012 Rise Set
Actual Time 6:13 AM AST 5:38 PM AST
Civil Twilight 5:51 AM AST 6:00 PM AST
Nautical Twilight 5:25 AM AST 6:26 PM AST
Astronomical Twilight 4:59 AM AST 6:52 PM AST
Moon 11:10 PM AST (11/5) 11:28 AM AST (11/5)
Length of Visible Light 12h 09m
Length of Day
11h 24m
Waning Gibbous, 63% of the Moon is Illuminated
Nov 5
Waning Gibbous
Nov 6
Last Quarter
Nov 13
New
Nov 20
First Quarter
Nov 28
Full

Hourly Weather History & Observations

Time (AST) Temp. Heat Index Dew Point Humidity Pressure Visibility Wind Dir Wind Speed Gust Speed Precip Events Conditions
12:00 AM 80.6 °F 85.4 °F 73.4 °F 79% 29.92 in 6.2 mi East 10.4 mph - N/A Rain Light Rain Showers
1:00 AM 80.6 °F 85.4 °F 73.4 °F 79% 29.92 in 6.2 mi East 9.2 mph - N/A   Scattered Clouds
2:00 AM 80 °F - 74 °F 76% 29.90 in 34 mi ESE 5.8 mph - -   Partly Cloudy
2:00 AM 80.6 °F 85.4 °F 73.4 °F 79% 29.89 in 6.2 mi ESE 5.8 mph - N/A   Partly Cloudy
3:00 AM 80.6 °F 86.2 °F 75.2 °F 84% 29.89 in 6.2 mi ESE 6.9 mph - N/A   Partly Cloudy
5:00 AM 79 °F - 74 °F 79% 29.89 in 34 mi SE 5.8 mph - -   Partly Cloudy
5:00 AM 78.8 °F - 73.4 °F 83% 29.89 in 6.2 mi SE 5.8 mph - N/A   Scattered Clouds
6:00 AM 80.6 °F 85.4 °F 73.4 °F 79% 29.89 in 6.2 mi ESE 5.8 mph - N/A   Scattered Clouds
6:39 AM 77.0 °F - 73.4 °F 89% 29.92 in 5.0 mi Variable 3.5 mph - N/A Rain Rain Showers
7:00 AM 78.8 °F - 75.2 °F 89% 29.92 in 6.2 mi Variable 3.5 mph - N/A   Mostly Cloudy
8:00 AM 81 °F - 74 °F 75% 29.94 in 16 mi ESE 6.9 mph - - Rain Light Rain Showers
8:00 AM 80.6 °F 86.2 °F 75.2 °F 84% 29.92 in 6.2 mi ESE 6.9 mph - N/A Rain Light Rain Showers
9:00 AM 84.2 °F 90.9 °F 73.4 °F 70% 29.95 in 6.2 mi ESE 10.4 mph - N/A   Mostly Cloudy
10:00 AM 84.2 °F 90.9 °F 73.4 °F 70% 29.95 in 6.2 mi SE 11.5 mph - N/A   Partly Cloudy
11:00 AM 85 °F - 75 °F 65% 29.96 in 44 mi ESE 8.1 mph - -   Partly Cloudy
11:00 AM 86.0 °F 95.1 °F 75.2 °F 70% 29.95 in 6.2 mi ESE 8.1 mph - N/A   Scattered Clouds
12:00 PM 84.2 °F 90.9 °F 73.4 °F 70% 29.95 in 6.2 mi ESE 9.2 mph - N/A   Mostly Cloudy
1:00 PM 86.0 °F 93.4 °F 73.4 °F 66% 29.92 in 6.2 mi ESE 10.4 mph - N/A   Scattered Clouds
2:00 PM 85 °F - 74 °F 61% 29.91 in 25 mi ESE 9.2 mph - -   Mostly Cloudy
2:00 PM 84.2 °F 90.9 °F 73.4 °F 70% 29.89 in 6.2 mi ESE 8.1 mph - N/A   Mostly Cloudy
3:00 PM 82.4 °F 88.2 °F 73.4 °F 74% 29.89 in 6.2 mi ESE 10.4 mph - N/A   Mostly Cloudy
4:00 PM 82.4 °F 88.2 °F 73.4 °F 74% 29.89 in 6.2 mi ESE 8.1 mph - N/A   Scattered Clouds
5:00 PM 83 °F - 74 °F 68% 29.91 in 28 mi ESE 6.9 mph - -   Mostly Cloudy
5:00 PM 82.4 °F 88.2 °F 73.4 °F 74% 29.92 in 6.2 mi ESE 8.1 mph - N/A   Mostly Cloudy
6:00 PM 80.6 °F 86.2 °F 75.2 °F 84% 29.92 in 6.2 mi SE 12.7 mph - N/A   Mostly Cloudy
7:00 PM 80.6 °F 85.4 °F 73.4 °F 79% 29.92 in 6.2 mi SE 5.8 mph - N/A   Mostly Cloudy
8:00 PM 80 °F - 74 °F 76% 29.95 in 25 mi 3.5 mph - -   Scattered Clouds
8:00 PM 80.6 °F 85.4 °F 73.4 °F 79% 29.95 in 6.2 mi Variable 3.5 mph - N/A   Partly Cloudy
9:00 PM 80.6 °F 85.4 °F 73.4 °F 79% 29.95 in 6.2 mi East 9.2 mph - N/A   Partly Cloudy
10:00 PM 80.6 °F 84.6 °F 71.6 °F 74% 29.95 in 6.2 mi East 5.8 mph - N/A   Partly Cloudy
11:00 PM 81 °F - 73 °F 71% 29.95 in 25 mi ESE 8.1 mph - -   Partly Cloudy
11:00 PM 80.6 °F 85.4 °F 73.4 °F 79% 29.95 in 6.2 mi East 8.1 mph - N/A   Scattered Clouds